Regional Weather Roundup
Issued by NWS Goodland, KS

Home | Current Version | Previous Version | Graphics & Text | Print | Product List | Glossary On
Versions: 1 2 3 4 5 6 7 8 9 10 11 12 13 14 15 16 17 18 19 20 21 22 23 24 25 26 27 28 29 30 31 32 33 34 35 36 37 38 39 40 41 42 43 44 45 46 47 48 49 50
411
ASUS43 KGLD 232359
RWRGLD

GOODLAND FORECAST AREA HOURLY WEATHER ROUNDUP
NATIONAL WEATHER SERVICE GOODLAND KS
600 PM MDT WED AUG 23 2017

...OFFICIAL OBSERVATIONS...

CITY           SKY/WX    TMP DP  RH WIND       PRES   REMARKS
GOODLAND KS    SUNNY     82  62  50 S16       30.03S
HILL CITY KS   SUNNY     85  45  24 SE14      30.01F
IMPERIAL NEB   SUNNY     86  58  38 S14G21    29.99F
MCCOOK NEB     SUNNY     83  53  35 S10       30.00F
AKRON CO       CLOUDY    82  49  31 S12       30.05R
BURLINGTON CO  SUNNY     84  58  40 S16G23    30.06S
LIMON CO       CLOUDY    77  54  44 S13       30.13R
$$

...UNOFFICIAL OBSERVATIONS...

CITY           SKY/WX    TMP DP  RH WIND       PRES   REMARKS
LENORA KS        N/A     83  32  16 SE8         N/A
NORTON KS      SUNNY     82  36  18 SE8       30.00F
TRENTON NEB      N/A     85  32  15 S7          N/A
KIT CARSON CO    N/A     86  56  36 MISG        N/A
YUMA CO        FAIR      79  59  50 S8        30.03R
$$




USA.gov is the U.S. government's official web portal to all federal, state and local government web resources and services.